This is the latest recevied weather packets stored in our database for station/object KU9TRY. If no packets are shown the sender has not sent any weather packets the latest 10 day(s).
| Time | Temp. | Humidity | Pressure | Rain* | Wind** | Luminosity | Snow |
|---|---|---|---|---|---|---|---|
| 1788118102 | 33.33° C | 50% | 1019.2 hPa | 0 mm | - | 111 W/m² | - |
| 1788117801 | 32.78° C | 49% | 1019.6 hPa | 0 mm | - | 165 W/m² | - |
| 1788117497 | 33.33° C | 49% | 1019.5 hPa | 0 mm | - | 103 W/m² | - |
| 1788117196 | 33.33° C | 50% | 1019.8 hPa | 0 mm | - | 116 W/m² | - |
| 1788116892 | 33.33° C | 51% | 1019.9 hPa | 0 mm | - | 122 W/m² | - |
| 1788116592 | 33.89° C | 48% | 1019.8 hPa | 0 mm | - | 172 W/m² | - |
| 1788116291 | 33.89° C | 47% | 1019.9 hPa | 0 mm | - | 117 W/m² | - |
| 1788115986 | 33.33° C | 47% | 1019.7 hPa | 0 mm | - | 146 W/m² | - |
| 1788115681 | 33.33° C | 51% | 1019.7 hPa | 0 mm | - | 130 W/m² | - |
| 1788115380 | 32.78° C | 51% | 1019.8 hPa | 0 mm | - | 113 W/m² | - |
| 1788115076 | 33.33° C | 50% | 1020.1 hPa | 0 mm | - | 123 W/m² | - |
| 1788114775 | 33.33° C | 51% | 1020.2 hPa | 0 mm | - | 142 W/m² | - |
| 1788114471 | 33.33° C | 49% | 1020.2 hPa | 0 mm | - | 149 W/m² | - |
| 1788114167 | 33.33° C | 50% | 1020.3 hPa | 0 mm | - | 176 W/m² | - |
| 1788113863 | 33.33° C | 48% | 1020.4 hPa | 0 mm | - | 262 W/m² | - |
| 1788113558 | 33.33° C | 48% | 1020.4 hPa | 0 mm | - | 212 W/m² | - |
| 1788113257 | 33.33° C | 49% | 1020.4 hPa | 0 mm | - | 188 W/m² | - |
| 1788112952 | 32.78° C | 52% | 1020.6 hPa | 0 mm | - | 146 W/m² | - |
| 1788112651 | 33.33° C | 50% | 1020.4 hPa | 0 mm | - | 156 W/m² | - |
| 1788112347 | 33.33° C | 51% | 1020.7 hPa | 0 mm | - | 182 W/m² | - |
| 1788112041 | 33.33° C | 51% | 1020.6 hPa | 0 mm | - | 860 W/m² | - |
| 1788111737 | 32.78° C | 52% | 1020.6 hPa | 0 mm | - | 941 W/m² | - |
| 1788111437 | 32.78° C | 53% | 1020.7 hPa | 0 mm | - | 987 W/m² | - |
| 1788111132 | 32.78° C | 54% | 1020.6 hPa | 0 mm | - | 265 W/m² | - |
| 1788110829 | 33.33° C | 52% | 1020.8 hPa | 0 mm | - | 186 W/m² | - |
* Rain latest hour (hover to see other rain measurements)
** Current wind speed in m/s (hover to see current wind gust speed)